Weather reports worldwide

Advertisment
La Coruna, Spain (8001): temperature & dewpoint: 20.09.2020 13:00:00 - 26.09.2020 13:00:00 (CEST)La Coruna, Spain (8001): wind speed: 20.09.2020 13:00:00 - 26.09.2020 13:00:00 (CEST)La Coruna, Spain (8001): wind direction: 20.09.2020 13:00:00 - 26.09.2020 13:00:00 (CEST)La Coruna, Spain (8001): reduced air pressure: 20.09.2020 13:00:00 - 26.09.2020 13:00:00 (CEST)La Coruna, Spain (8001): visibility: 20.09.2020 13:00:00 - 26.09.2020 13:00:00 (CEST)La Coruna, Spain (8001): precipitation: 20.09.2020 13:00:00 - 26.09.2020 13:00:00 (CEST)
Date & Time tt [°C] td [°C] ff [km/h] ff [kn] dd ppp [hPa] vv [km] rr [mm]
26.09.2020 13:00:00 16,7 14,9 18 10 WSW 1023,5 4,9 0,6
26.09.2020 12:00:00 16,5 14,1 16 9 WSW 1023,9 20 0,0
26.09.2020 11:00:00 15,2 14,1 15 8 WSW 1024,6 2,0 -
26.09.2020 10:00:00 15,7 13,0 13 7 SW 1024,6 20 0,0
26.09.2020 09:00:00 15,1 12,8 16 9 SW 1024,7 20 0,0
26.09.2020 08:00:00 14,7 12,2 15 8 SW 1025,4 18 -
26.09.2020 07:00:00 14,7 11,8 15 8 SW 1025,8 20 0,0
26.09.2020 06:00:00 14,8 11,8 13 7 SW 1026,3 20 0,0
26.09.2020 05:00:00 15,0 11,6 11 6 W 1026,9 12 -
26.09.2020 04:00:00 14,9 11,7 8 4 SW 1027,4 20 0,0
26.09.2020 03:00:00 14,6 12,3 2 1 NNW 1028,0 13 0,0
26.09.2020 02:00:00 14,9 10,9 4 2 W 1028,6 15 -
26.09.2020 01:00:00 14,7 10,3 8 4 W 1028,9 19 0,0
26.09.2020 00:00:00 14,9 10,1 13 7 NW 1029,3 20 0,0
25.09.2020 23:00:00 14,6 11,7 11 6 W 1029,4 15 -
25.09.2020 22:00:00 14,6 11,7 13 7 N 1029,4 10 0,2
25.09.2020 21:00:00 15,3 10,3 8 4 NNW 1029,1 20 0,0
25.09.2020 20:00:00 15,4 9,5 13 7 WNW 1028,5 20 -
25.09.2020 19:00:00 16,4 11,3 9 5 NW 1028,5 19 0,0
25.09.2020 18:00:00 16,4 12,0 9 5 W 1028,6 19 0,2
25.09.2020 17:00:00 17,1 10,5 11 6 NW 1028,3 20 -
25.09.2020 16:00:00 16,3 9,7 16 9 NW 1028,5 20 0,0
25.09.2020 15:00:00 17,6 11,4 13 7 NW 1028,3 20 0,0
25.09.2020 14:00:00 17,9 9,8 16 9 NW 1027,9 22 -
25.09.2020 13:00:00 17,1 10,5 15 8 WNW 1027,6 18 0,0
25.09.2020 12:00:00 17,2 10,1 18 10 NW 1027,4 20 0,2
25.09.2020 11:00:00 15,9 11,1 16 9 WNW 1026,6 22 -
25.09.2020 10:00:00 14,9 10,7 21 11 WNW 1026,0 18 0,0
25.09.2020 09:00:00 13,9 11,2 16 9 WNW 1024,8 18 0,2
25.09.2020 08:00:00 13,3 11,0 22 12 WNW 1024,5 12 -
25.09.2020 07:00:00 13,8 11,0 21 11 WNW 1023,9 11 0,2
25.09.2020 06:00:00 14,2 10,4 15 8 WNW 1023,2 18 0,0
25.09.2020 05:00:00 13,6 11,1 15 8 WSW 1022,8 15 -
25.09.2020 04:00:00 13,6 10,9 13 7 NW 1022,8 14 0,2
25.09.2020 03:00:00 14,3 10,5 18 10 WNW 1022,8 17 0,0
25.09.2020 02:00:00 14,5 8,7 18 10 WNW 1022,3 18 -
25.09.2020 01:00:00 14,1 9,9 15 8 W 1021,9 19 0,0
25.09.2020 00:00:00 14,7 9,7 22 12 WNW 1021,3 19 0,0
24.09.2020 23:00:00 14,7 10,5 16 9 W 1021,0 18 -
24.09.2020 22:00:00 15,0 11,6 24 13 WNW 1020,3 15 0,0
24.09.2020 21:00:00 15,2 11,4 22 12 WNW 1019,5 19 0,0
24.09.2020 20:00:00 15,1 11,7 15 8 W 1018,6 19 -
24.09.2020 19:00:00 16,1 13,0 34 18 W 1018,0 19 1,0
24.09.2020 18:00:00 17,8 12,7 24 13 WSW 1016,6 20 0,0
24.09.2020 17:00:00 17,7 12,2 26 14 WSW 1016,5 20 -
24.09.2020 16:00:00 19,2 12,0 31 17 WSW 1016,3 20 0,0
24.09.2020 15:00:00 18,9 12,2 29 16 WSW 1016,0 20 0,0
24.09.2020 14:00:00 19,3 12,8 26 14 WSW 1015,9 25 -
24.09.2020 13:00:00 17,4 13,1 22 12 SW 1015,9 20 0,0
24.09.2020 12:00:00 15,7 13,0 21 11 SW 1015,8 20 0,0
24.09.2020 11:00:00 17,3 12,4 22 12 SW 1015,1 18 -
24.09.2020 10:00:00 16,0 11,8 16 9 SW 1014,8 20 0,0
24.09.2020 09:00:00 15,1 11,9 16 9 SW 1014,6 20 0,0
24.09.2020 08:00:00 14,6 11,6 16 9 SW 1014,6 18 -
24.09.2020 07:00:00 14,5 11,5 16 9 SW 1014,8 20 0,0
24.09.2020 06:00:00 14,6 11,6 16 9 SSW 1014,8 20 0,0
24.09.2020 05:00:00 14,8 11,9 13 7 SW 1015,4 15 -
24.09.2020 04:00:00 15,0 12,3 13 7 SW 1015,7 20 0,0
24.09.2020 03:00:00 15,4 13,2 13 7 SW 1015,5 20 0,0
24.09.2020 02:00:00 15,5 13,0 15 8 WSW 1015,6 15 -
24.09.2020 01:00:00 15,8 13,5 13 7 WSW 1015,7 20 0,0
24.09.2020 00:00:00 16,1 13,9 11 6 SW 1015,6 20 0,0
23.09.2020 23:00:00 15,8 14,2 5 3 SSW 1015,5 15 -
23.09.2020 22:00:00 15,3 14,5 9 5 S 1015,3 12 1,0
23.09.2020 21:00:00 15,2 14,6 8 4 WNW 1014,9 3,4 1,0
23.09.2020 20:00:00 15,5 14,7 11 6 NW 1014,3 2,7 -
23.09.2020 19:00:00 17,9 15,2 22 12 WNW 1013,7 20 0,0
23.09.2020 18:00:00 19,5 14,1 24 13 W 1013,0 20 0,0
23.09.2020 17:00:00 20,7 14,3 24 13 W 1012,5 20 -
23.09.2020 16:00:00 21,8 13,7 13 7 W 1012,6 20 0,0
23.09.2020 15:00:00 21,1 14,7 13 7 W 1013,0 20 0,0
23.09.2020 14:00:00 20,8 15,8 16 9 WNW 1013,1 25 -
23.09.2020 13:00:00 19,8 15,9 15 8 WSW 1012,8 20 0,0
23.09.2020 12:00:00 19,6 16,1 11 6 W 1012,7 20 0,0
23.09.2020 11:00:00 18,5 15,7 13 7 WSW 1012,3 20 -
23.09.2020 10:00:00 17,8 16,1 9 5 WSW 1011,8 20 0,0
23.09.2020 09:00:00 17,6 16,1 13 7 SW 1011,5 19 0,0
23.09.2020 08:00:00 17,2 16,1 13 7 SSW 1011,0 18 -
23.09.2020 07:00:00 17,7 15,9 21 11 WSW 1010,8 8 0,0
23.09.2020 06:00:00 18,0 16,0 15 8 WSW 1010,7 20 0,0
23.09.2020 05:00:00 18,1 15,9 18 10 WSW 1010,4 16 -
23.09.2020 04:00:00 18,6 16,4 18 10 SW 1010,1 20 0,0
23.09.2020 03:00:00 18,9 16,9 21 11 SSW 1009,7 20 0,0
23.09.2020 02:00:00 19,0 17,0 11 6 SSW 1009,8 20 -
23.09.2020 01:00:00 18,9 16,7 11 6 SSE 1010,4 20 0,0
23.09.2020 00:00:00 18,7 16,5 13 7 S 1010,4 20 0,0
22.09.2020 23:00:00 18,4 17,1 11 6 SE 1011,4 13 -
22.09.2020 22:00:00 18,2 16,9 8 4 SE 1012,0 - 2,0
22.09.2020 21:00:00 18,4 16,2 4 2 E 1012,4 17 0,0
22.09.2020 20:00:00 19,0 16,0 4 2 ENE 1012,6 15 -
22.09.2020 19:00:00 19,6 15,3 9 5 WNW 1012,6 20 0,0
22.09.2020 18:00:00 20,6 15,6 11 6 W 1012,8 20 0,0
22.09.2020 17:00:00 21,9 14,5 8 4 NNW 1013,4 20 -
22.09.2020 16:00:00 22,5 15,3 8 4 N 1014,0 20 0,0
22.09.2020 15:00:00 23,1 15,7 8 4 SW 1014,8 19 0,0
22.09.2020 14:00:00 22,4 15,0 8 4 SE 1015,2 25 -
22.09.2020 13:00:00 21,7 15,5 5 3 N 1016,0 20 0,0
22.09.2020 12:00:00 20,3 15,1 5 3 W 1016,5 20 0,0
22.09.2020 11:00:00 19,6 14,8 8 4 SE 1016,6 15 -
22.09.2020 10:00:00 17,7 14,0 5 3 SSE 1016,5 20 0,0
22.09.2020 09:00:00 16,3 14,0 8 4 S 1016,8 19 0,0
22.09.2020 08:00:00 16,0 14,4 8 4 S 1016,7 20 -
22.09.2020 07:00:00 15,8 14,7 4 2 S 1016,8 13 0,0
22.09.2020 06:00:00 16,3 14,7 2 1 NNW 1016,8 12 0,0
22.09.2020 05:00:00 16,5 14,9 5 3 SSW 1016,8 15 -
22.09.2020 04:00:00 16,7 14,9 5 3 SW 1017,2 20 0,0
22.09.2020 03:00:00 17,2 15,5 5 3 S 1017,8 20 0,0
22.09.2020 02:00:00 17,5 15,8 5 3 SSE 1018,4 15 -
22.09.2020 01:00:00 17,9 16,1 8 4 SSE 1018,8 19 0,0
22.09.2020 00:00:00 18,2 16,4 4 2 WSW 1019,3 20 0,0
21.09.2020 23:00:00 18,0 16,5 5 3 WSW 1019,4 15 -
21.09.2020 22:00:00 17,9 16,6 8 4 W 1019,2 20 0,0
21.09.2020 21:00:00 18,1 16,3 5 3 WSW 1018,9 20 0,0
21.09.2020 20:00:00 18,7 16,3 9 5 W 1018,9 20 -
21.09.2020 19:00:00 19,3 15,8 16 9 W 1018,8 20 0,0
21.09.2020 18:00:00 19,8 15,6 18 10 W 1018,9 20 0,0
21.09.2020 17:00:00 21,3 16,3 13 7 WNW 1018,9 20 -
21.09.2020 16:00:00 21,4 16,1 11 6 NW 1019,1 20 0,0
21.09.2020 15:00:00 21,8 16,7 8 4 N 1019,5 20 0,0
21.09.2020 14:00:00 22,5 16,1 13 7 W 1019,6 22 -
21.09.2020 13:00:00 20,9 15,7 9 5 W 1019,9 20 0,0
21.09.2020 12:00:00 20,6 15,4 8 4 W 1019,9 20 0,0
21.09.2020 11:00:00 19,3 15,6 8 4 SW 1019,6 18 -
21.09.2020 10:00:00 17,8 15,1 9 5 S 1019,5 20 0,0
21.09.2020 09:00:00 17,1 16,3 8 4 S 1019,4 19 0,0
21.09.2020 08:00:00 17,1 16,5 4 2 ESE 1018,9 12 -
21.09.2020 07:00:00 17,1 16,6 4 2 ESE 1018,7 16 0,0
21.09.2020 06:00:00 17,1 16,5 2 1 E 1018,6 16 0,0
21.09.2020 05:00:00 17,1 16,3 5 3 W 1018,7 12 -
21.09.2020 04:00:00 17,4 16,6 4 2 W 1019,0 15 0,0
21.09.2020 03:00:00 17,4 16,4 4 2 SSW 1019,2 16 0,6
21.09.2020 02:00:00 17,5 16,0 11 6 S 1019,3 12 -
21.09.2020 01:00:00 18,0 16,3 8 4 S 1019,4 15 0,0
21.09.2020 00:00:00 18,4 17,2 8 4 SE 1019,5 7 1,0
20.09.2020 23:00:00 18,7 17,5 5 3 SW 1019,6 10 -
20.09.2020 22:00:00 18,8 17,3 4 2 WNW 1019,3 20 0,0
20.09.2020 21:00:00 18,8 17,3 5 3 W 1018,9 20 0,0
20.09.2020 20:00:00 19,0 17,3 8 4 W 1018,4 20 -
20.09.2020 19:00:00 19,3 17,4 13 7 W 1018,2 20 0,0
20.09.2020 18:00:00 19,9 17,5 16 9 W 1017,8 20 0,0
20.09.2020 17:00:00 21,5 17,7 13 7 W 1017,2 20 -
20.09.2020 16:00:00 21,1 17,3 9 5 WNW 1017,3 20 0,0
20.09.2020 15:00:00 21,3 17,3 9 5 N 1017,5 20 0,0
20.09.2020 14:00:00 21,2 17,2 8 4 N 1017,7 15 -
20.09.2020 13:00:00 20,0 17,0 5 3 NE 1017,8 19 0,0

tt = temperature
td = dewpoint
ff = wind speed
dd = wind direction
ppp = reduced air pressure
vv = visibility
rr = precipitation

Next stations